Location: Nitra
(0.0000°N, 18.0833°E)
Time: 22:47:33
(UTC+02:00)

Hubble Space Telescope - Pass Details

Date: 06 February 2023
Orbit: 527 x 530 km, 28.5° (Epoch: 28 March)

Event Time Altitude Azimuth Distance (km) Brightness Sun altitude
Exits shadow 05:18:29 - 329° (NNW) 2,050 3.3 -10.4°
Reaches altitude 10° 05:19:23 10° 336° (NNW) 1,760 3.0 -10.2°
Maximum altitude 05:22:38 23° 29° (NNE) 1,160 2.6 -9.4°
Drops below altitude 10° 05:25:53 10° 82° (E) 1,766 4.6 -8.6°
Sets 05:28:30 0° 97° (E) 2,658 6.5 -8.0°
